Location: Unspecified
(0.0000°N, 0.0000°E)
Time: 17:41:47
(UTC+00:00)

deb Delta 126 - Pass Details

Date: 23 February 2026
Orbit: 1485 x 1545 km, 102.1° (Epoch: 6 March)

Event Time Altitude Azimuth Distance (km) Brightness Sun altitude
Rises 02:22:20 0° 36° (NE) 4,652 ? -56.4°
Enters shadow 02:23:26 - 39° (NE) 4,302 ? -56.2°
Exits shadow 02:39:31 14° 165° (SSE) 3,366 ? -52.3°
Drops below altitude 10° 02:40:27 10° 168° (SSE) 3,638 ? -52.1°
Sets 02:43:34 0° 177° (S) 4,616 ? -51.4°
